#timestamp,LO_Frequency,Hit,StdDev 
1624438815.3,286047000.1,N
1624438835.2,286047002.6,N
1624438855.9,286047002.4,N
1624438875.7,286047001.6,N
1624438895.6,286047001.8,N
1624438915.4,286047004.4,N
1624438935.3,286047001.4,N
1624438955.1,286047003.5,N
1624438956.0,286047003.5,N
1624438975.8,286047003.7,N
1624438995.7,286047003.3,N
1624439015.5,286047005.6,N
1624439035.3,286047005.9,N
1624439055.2,286047003.3,N
1624439075.0,286047005.9,N
1624439075.9,286047005.9,N
1624439095.8,286047006.0,N
1624439115.6,286047005.9,N
1624439135.4,286047003.1,N
1624439155.3,286047002.9,N
1624439175.1,286047005.4,N
1624439195.8,286047003.0,N
1624439215.7,286047005.9,N
1624439235.5,286047002.9,N
1624439255.4,286047003.2,N
1624439275.2,286047003.9,N
1624439295.0,286047003.8,N
1624439295.9,286047003.8,N
1624439315.8,286047003.6,N
1624439335.6,286047003.6,N
1624439355.5,286047004.3,N
1624439375.3,286047003.6,N
1624439395.1,286047005.7,Y
1624439415.9,286047000.7,P
1624439435.7,286046998.5,N
1624439455.5,286046998.3,N
1624439475.4,286046998.3,N
1624439495.2,286046999.3,N
1624439515.1,286047000.8,N
1624439516.0,286047000.8,N
1624439535.8,286046998.1,N
1624439555.6,286046998.7,N
1624439575.5,286046999.4,N
1624439595.3,286046999.6,N
1624439615.2,286046996.6,N
1624439635.9,286046997.5,N
1624439655.7,286046997.9,N
1624439675.6,286046996.6,N
1624439695.4,286046999.1,N
1624439715.2,286046996.5,N
1624439735.1,286046996.6,N
1624439736.0,286046996.6,N
1624439755.8,286046996.7,N
1624439775.7,286046999.3,N
1624439795.5,286046998.8,N
1624439815.3,286046996.9,N
1624439835.2,286046998.1,N
1624439855.0,286046998.7,N
1624439855.9,286046998.7,N
1624439875.8,286046998.7,N
1624439895.6,286046998.3,N
1624439915.4,286047000.3,N
1624439935.3,286047000.8,N
1624439955.1,286047000.7,N
1624439975.8,286047000.5,N
1624439995.7,286047000.3,N
1624440015.5,286047002.4,N
1624440035.4,286047002.3,N
1624440055.2,286047002.3,N
1624440075.0,286047001.5,N
1624440075.9,286047001.5,N
1624440095.8,286047003.6,N
1624440115.6,286047002.6,N
1624440135.4,286046999.7,N
1624440155.3,286047002.1,N
1624440175.1,286047002.1,N
1624440195.9,286047001.8,N
1624440215.7,286047001.3,N
1624440235.5,286047001.9,N
1624440255.4,286047001.9,N
1624440275.2,286047000.5,N
1624440295.1,286047000.4,N
1624440296.0,286047000.4,N
1624440315.8,286047000.6,N
1624440335.6,286047000.2,N
1624440355.5,286047000.3,N
1624440375.3,286047002.7,N
1624440395.1,286047000.2,N
1624440415.9,286047002.1,N
1624440435.7,286047002.4,N
1624440455.6,286047002.1,N
1624440475.4,286047001.4,N
1624440495.2,286047004.0,Y
1624440515.1,286047002.8,P
1624440516.0,286047002.8,P
1624440535.8,286047002.7,P
1624440555.6,286047002.1,Y
1624440575.5,286046998.3,P
1624440595.3,286046998.1,N
1624440615.2,286046999.4,N
1624440635.9,286046996.5,N
1624440655.7,286046999.1,N
1624440675.6,286046999.5,N
1624440695.4,286046999.0,N
1624440715.2,286046998.7,N
1624440735.1,286046998.5,N
1624440736.0,286046998.5,N
1624440755.8,286046998.7,N
1624440775.7,286046998.1,N
1624440795.5,286046998.4,N
1624440815.3,286046998.9,N
1624440835.2,286046999.0,N
1624440855.0,286046998.7,N
1624440855.9,286046998.7,N
1624440875.7,286046998.5,N
1624440895.6,286046998.8,N
1624440915.4,286047001.1,N
1624440935.3,286046998.2,N
1624440955.1,286046996.7,Y
1624440956.0,286046996.7,P
1624440975.8,286046996.7,P
1624440995.7,286046996.5,P
1624441015.5,286046996.9,Y
1624441035.4,286047002.2,P
1624441055.2,286047002.3,N
1624441075.0,286047001.7,N
1624441075.9,286047001.7,N
1624441095.8,286047002.4,N
1624441115.6,286047002.6,N
1624441135.4,286047000.2,N
1624441155.3,286047000.2,N
1624441175.1,286047001.6,N
1624441195.9,286047001.4,N
1624441215.7,286047004.4,N
1624441235.5,286047004.1,N
1624441255.4,286047004.2,N
1624441275.2,286047003.7,N
1624441295.0,286047003.2,N
1624441295.9,286047003.2,N
1624441315.8,286047001.6,N
1624441335.6,286047000.0,N
1624441355.5,286047002.7,N
1624441375.3,286047002.6,N
1624441395.1,286047002.2,N
1624441415.9,286047004.4,N
1624441435.7,286047004.3,N
1624441455.5,286047003.5,N
1624441475.4,286047003.9,N
1624441495.2,286047003.9,N
1624441515.1,286047001.5,N
1624441516.0,286047001.5,N
1624441535.8,286047002.5,N
1624441555.6,286047002.3,N
1624441575.5,286047002.4,N
1624441595.3,286047002.5,N
1624441615.1,286047002.5,N
1624441635.9,286046999.9,N
1624441655.7,286047001.0,N
1624441675.6,286047001.2,N
1624441695.4,286046998.2,N
1624441715.2,286046998.6,N
1624441735.1,286047000.1,N
1624441736.0,286047000.1,N
1624441755.8,286047000.8,N
1624441775.6,286046999.3,N
1624441795.5,286046998.9,N
1624441815.3,286046999.6,N
1624441835.2,286046997.9,N
1624441855.9,286046995.0,N
1624441875.7,286046997.5,N
1624441895.6,286046996.7,N
1624441915.4,286046997.6,N
1624441935.2,286046995.3,N
1624441955.1,286046997.1,N
1624441956.0,286046997.1,N
1624441975.8,286046996.6,N
1624441995.7,286046999.2,N
1624442015.5,286046998.2,N
1624442035.3,286046998.1,N
1624442055.2,286046998.1,N
1624442075.0,286047001.2,N
1624442075.9,286047001.2,N
1624442095.8,286047000.0,N
1624442115.6,286047000.3,N
1624442135.4,286046999.9,N
1624442155.3,286047000.5,N
1624442175.1,286046999.7,N
1624442195.9,286047000.5,N
1624442215.7,286047000.2,N
1624442235.5,286047000.9,N
1624442255.4,286046999.9,N
1624442275.2,286047000.1,N
1624442295.0,286047000.7,N
1624442295.9,286047000.7,N
1624442315.8,286047000.0,N
1624442335.6,286047000.0,N
1624442355.5,286046999.7,N
1624442375.3,286047002.8,N
1624442395.1,286047000.6,N
